Doha, Qatar

3:34 AM AST on December 11, 2016 (GMT +0300)
Doha

Weather History for OTBD - November, 2010

Change the Weather History Date:

Wednesday, November 24, 2010

  Actual Average Record
Temperature  
Mean Temperature 76 °F -  
Max Temperature 83 °F 77 °F 86 °F (2005)
Min Temperature 70 °F 61 °F 64 °F (2003)
Cooling Degree Days 12    
Growing Degree Days 26 (Base 50)    
Moisture  
Dew Point 61 °F    
Average Humidity 60    
Maximum Humidity 78    
Minimum Humidity 35    
Precipitation  
Precipitation 0.00 in 0.01 in - ()
Sea Level Pressure  
Sea Level Pressure 30.01 in    
Wind  
Wind Speed 8 mph ()    
Max Wind Speed 13 mph    
Max Gust Speed -    
Visibility 5.1 miles    
Events      
Averages and records for this station are not official NWS values.
T = Trace of Precipitation, MM = Missing Value Source: Averaged Metar Reports

Daily Weather History Graph

Daily Weather History Graph

Search for Another Location

Airport or City:

Trip Planner

Search our weather history database for the weather conditions in past years. The results will help you decide how hot, cold, wet, or windy it might be!

Date:

Astronomy

Nov. 24, 2010 Rise Set
Actual Time 5:56 AM AST 4:43 PM AST
Civil Twilight 5:32 AM AST 5:08 PM AST
Nautical Twilight 5:04 AM AST 5:36 PM AST
Astronomical Twilight 4:36 AM AST 6:03 PM AST
Moon 7:10 PM AST (11/24) 8:17 AM AST (11/24)
Length of Visible Light 11h 35m
Length of Day
10h 46m
Waning Gibbous, 92% of the Moon is Illuminated
Nov 24
Waning Gibbous
Nov 28
Last Quarter
Dec 5
New
Dec 13
First Quarter
Dec 21
Full

Hourly Weather History & Observations

Time (AST) Temp. Heat Index Dew Point Humidity Pressure Visibility Wind Dir Wind Speed Gust Speed Precip Events Conditions
12:00 AM 73.4 °F - 64.4 °F 73% 29.95 in 4.3 mi NW 9.2 mph - N/A   Unknown
12:30 AM 73.4 °F - 64.4 °F 73% 29.95 in 4.3 mi NW 9.2 mph - N/A   Unknown
1:00 AM 73.4 °F - 64.4 °F 73% 29.95 in 4.3 mi NW 9.2 mph - N/A   Unknown
1:30 AM 73.4 °F - 64.4 °F 73% 29.95 in 4.3 mi WNW 6.9 mph - N/A   Unknown
2:00 AM 71.6 °F - 64.4 °F 78% 29.95 in 4.3 mi WNW 6.9 mph - N/A   Unknown
2:30 AM 71.6 °F - 64.4 °F 78% 29.95 in 4.3 mi NW 8.1 mph - N/A   Unknown
3:00 AM 72 °F - 64 °F 69% 29.97 in 4 mi NW 9.2 mph - -   Haze
3:00 AM 71.6 °F - 64.4 °F 78% 29.95 in 4.3 mi NW 9.2 mph - N/A   Unknown
3:30 AM 71.6 °F - 62.6 °F 73% 29.95 in 4.3 mi NW 10.4 mph - N/A   Unknown
4:00 AM 71.6 °F - 62.6 °F 73% 29.95 in 4.3 mi NW 9.2 mph - N/A   Unknown
4:30 AM 71.6 °F - 62.6 °F 73% 29.98 in 4.3 mi NW 9.2 mph - N/A   Unknown
5:00 AM 71.6 °F - 60.8 °F 69% 29.98 in 4.3 mi NW 10.4 mph - N/A   Unknown
5:30 AM 71.6 °F - 60.8 °F 69% 29.98 in 3.7 mi WNW 9.2 mph - N/A   Unknown
6:00 AM 71.6 °F - 60.8 °F 69% 30.01 in 3.7 mi NW 9.2 mph - N/A   Unknown
6:30 AM 71.6 °F - 60.8 °F 69% 30.01 in 3.7 mi NW 9.2 mph - N/A   Unknown
7:00 AM 71.6 °F - 60.8 °F 69% 30.04 in 3.7 mi NW 9.2 mph - N/A   Unknown
7:30 AM 73.4 °F - 60.8 °F 65% 30.04 in 4.3 mi WNW 6.9 mph - N/A   Unknown
8:00 AM 73.4 °F - 60.8 °F 65% 30.04 in 4.3 mi WNW 6.9 mph - N/A   Unknown
8:30 AM 75.2 °F - 59.0 °F 57% 30.06 in 5.0 mi WNW 8.1 mph - N/A   Unknown
9:00 AM 77 °F - 56 °F 39% 30.07 in 6 mi NW 9.2 mph - -   Smoke
9:00 AM 77.0 °F - 57.2 °F 50% 30.06 in 5.6 mi NW 9.2 mph - N/A   Unknown
9:30 AM 78.8 °F - 55.4 °F 44% 30.06 in 5.6 mi NW 10.4 mph - N/A   Unknown
10:00 AM 80.6 °F 80.5 °F 55.4 °F 42% 30.04 in 5.6 mi NW 11.5 mph - N/A   Unknown
10:30 AM 80.6 °F 80.5 °F 55.4 °F 42% 30.04 in - NW 9.2 mph - N/A   Clear
11:00 AM 80.6 °F 80.5 °F 55.4 °F 42% 30.04 in - NW 10.4 mph - N/A   Clear
11:30 AM 84.2 °F 83.0 °F 55.4 °F 37% 30.01 in - NNW 11.5 mph - N/A   Clear
12:30 PM 84.2 °F 82.8 °F 53.6 °F 35% 30.01 in 6.2 mi North 11.5 mph - N/A   Partly Cloudy
1:00 PM 84.2 °F 83.5 °F 57.2 °F 40% 29.98 in 6.2 mi North 11.5 mph - N/A   Partly Cloudy
1:30 PM 82.4 °F 81.4 °F 53.6 °F 37% 30.01 in 6.2 mi North 12.7 mph - N/A   Partly Cloudy
2:00 PM 82.4 °F 81.7 °F 55.4 °F 39% 30.01 in 6.2 mi North 12.7 mph - N/A   Partly Cloudy
2:30 PM 82.4 °F 81.7 °F 55.4 °F 39% 29.98 in 6.2 mi North 12.7 mph - N/A   Partly Cloudy
3:00 PM 81 °F - 59 °F 37% 30.00 in 9 mi North 10.4 mph - -   Scattered Clouds
3:00 PM 80.6 °F 81.1 °F 59.0 °F 48% 29.98 in 6.2 mi North 10.4 mph - N/A   Partly Cloudy
3:30 PM 80.6 °F 81.5 °F 60.8 °F 51% 30.01 in 6.2 mi North 11.5 mph - N/A   Partly Cloudy
4:00 PM 78.8 °F - 60.8 °F 54% 30.01 in 6.2 mi North 12.7 mph - N/A   Partly Cloudy
4:30 PM 78.8 °F - 62.6 °F 57% 30.01 in 6.2 mi North 12.7 mph - N/A   Partly Cloudy
5:00 PM 77.0 °F - 62.6 °F 61% 30.01 in - North 10.4 mph - N/A   Clear
5:30 PM 78.8 °F - 59.0 °F 51% 30.01 in - NNW 11.5 mph - N/A   Clear
6:00 PM 77.0 °F - 59.0 °F 54% 30.04 in - NNW 12.7 mph - N/A   Clear
6:30 PM 77.0 °F - 59.0 °F 54% 30.04 in - NNW 10.4 mph - N/A   Clear
7:00 PM 75.2 °F - 59.0 °F 57% 30.04 in - NNW 10.4 mph - N/A   Clear
7:30 PM 75.2 °F - 60.8 °F 61% 30.06 in - NNW 6.9 mph - N/A   Clear
8:00 PM 75.2 °F - 62.6 °F 65% 30.06 in - NW 6.9 mph - N/A   Clear
8:30 PM 75.2 °F - 64.4 °F 69% 30.06 in - NW 5.8 mph - N/A   Clear
9:00 PM 74 °F - 64 °F 63% 30.08 in 7 mi NW 5.8 mph - -  
9:00 PM 73.4 °F - 64.4 °F 73% 30.06 in - NW 5.8 mph - N/A   Clear
9:30 PM 73.4 °F - 64.4 °F 73% 30.06 in - NW 5.8 mph - N/A   Clear
10:00 PM 73.4 °F - 64.4 °F 73% 30.06 in - WNW 5.8 mph - N/A   Clear
10:30 PM 73.4 °F - 62.6 °F 69% 30.06 in - WNW 6.9 mph - N/A   Clear
11:00 PM 73.4 °F - 64.4 °F 73% 30.06 in - WNW 4.6 mph - N/A   Clear
11:30 PM 73.4 °F - 64.4 °F 73% 30.06 in - NW 5.8 mph - N/A   Clear